Zurück zum Katalog

STARLINK-2570

AktivKommunikationVLEO
NORAD 48405·PAYLOAD·🇺🇸 United States

Gestartet May 4, 2021 von Cape Canaveral Space Force Station

Loading…

Nächste Überflüge (nächste 24 Stunden)

TLE

AktuellSource: CelesTrak SupGP

Epoche: Sep 15, 2026, 01:54 UTC

1 48405C 21038BE  26258.07965278  .00005677  00000+0  18257-3 0  2580
2 48405  53.1602 171.4685 0001346  86.9861 214.3959 15.31696883    18

Verfolge STARLINK-2570 in Echtzeit mit AllMySat

Download on the App Store